Regional Weather Roundup
Issued by NWS Wakefield, VA

Home | Current Version | Previous Version | Graphics & Text | Print | Product List | Glossary On
Versions: 1 2 3 4 5 6 7 8 9 10 11 12 13 14 15 16 17 18 19 20 21 22 23 24 25 26 27
000
ASUS41 KAKQ 250515
RWRAKQ

REGIONAL WEATHER ROUNDUP
NATIONAL WEATHER SERVICE WAKEFIELD VA
100 AM EDT WED APR 25 2018

Note: "fair" indicates few or no clouds below 12,000 feet with no
significant weather and/or obstructions to visibility. * = Denotes
station may not report precipitation (e.g., rain,snow,etc.),
thunder or fog.

VAZ042-051-052>054-056-250600-
NORTHERN VIRGINIA

CITY           SKY/WX    TMP DP  RH WIND       PRES   REMARKS
WASH NATIONAL  LGT RAIN  55  53  93 NE7       29.92F FOG
DULLES         LGT RAIN  53  53 100 N7        29.93F FOG
FORT BELVOIR   LGT RAIN  54  53  95 CALM      29.91F FOG
QUANTICO       LGT RAIN  55  55 100 NE12      29.91F
FREDERICKSBRG* RAIN      55  55 100 CALM      29.88F
STAFFORD*      RAIN      55  55 100 N5        29.93F
WARRENTON      DRIZZLE   54  51  90 N6        29.90F
CULPEPER*      HVY RAIN  54  52  95 N7        29.92F
MANASSAS*      LGT RAIN  54  53  97 N6        29.92F FOG
LEESBURG*      LGT RAIN  50  50 100 NE6       29.94F
WINCHESTER     DRIZZLE   50  50 100 NE5       29.96F
FRONT ROYAL*   CLOUDY    50  50 100 N5        29.93S
LURAY*         CLOUDY    52  52 100 NE12      29.91F
$$

VAZ048-049-060>072-079>083-250600-
CENTRAL AND SOUTH CENTRAL VIRGINIA

CITY           SKY/WX    TMP DP  RH WIND       PRES   REMARKS
RICHMOND       CLOUDY    59  59 100 E5        29.85F FOG
CHESTERFIELD*  CLOUDY    59  59 100 E6        29.85F FOG
PETERSBURG*    CLOUDY    61  59  94 E5        29.85F
HANOVER        CLOUDY    58  58 100 CALM      29.87F FOG
TAPPAHANNOCK*  HVY RAIN  60  60  99 SE3       29.88F
QUINTON*       CLOUDY    58  58 100 E7        29.85F FOG
CHARLOTTSVILLE LGT RAIN  54  52  93 NE13      29.89F
GORDONSVILLE*  CLOUDY    53  53 100 NE7       29.89F
ORANGE*        HVY RAIN  52  52 100 CALM      29.90F
LOUISA*        LGT RAIN  53  53  98 N8        29.92F
BUMPASS*       NOT AVBL
FARMVILLE*     RAIN     N/A N/A N/A N10       29.83F
CREWE*         CLOUDY    58  58 100 CALM      29.83F
FORT PICKETT*  CLOUDY   N/A N/A N/A E3        29.83F
CHASE CITY*    CLOUDY    60  60 100 E3        29.81F
CLARKSVILLE*   CLOUDY    61  61 100 E6        29.80F
SOUTH HILL*    CLOUDY    60  60 100 CALM      29.87F
LAWRENCEVILLE* CLOUDY    62  61  97 CALM      29.82F
EMPORIA*       LGT RAIN  61  61 100 CALM      29.84F
$$

VAZ088>098-250600-
SOUTHEAST VIRGINIA

CITY           SKY/WX    TMP DP  RH WIND       PRES   REMARKS
NORFOLK        CLOUDY    60  59  96 SE10G17   29.85F
VIRGINIA BEACH CLOUDY    57  57 100 SE6       29.85F FOG
NORFOLK NAVAL  CLOUDY    61  59  93 SE10      29.87F
WEST POINT*    CLOUDY    59  58  96 E8        29.88F
SALUDA*        CLOUDY    58  58 100 SE5       29.88F
NEWPORT NEWS   CLOUDY    61  59  93 E5        29.86F FOG
LANGLEY AFB    NOT AVBL
FORT EUSTIS    CLOUDY    62  61  95 E6        29.83F
WILLIAMSBURG*  CLOUDY    61  61 100 CALM      29.87F
HR EXEC AP*    CLOUDY    61  60  97 E5        29.85F
FRANKLIN*      CLOUDY    64  63  97 SE8       29.83F
US460-WAKEFLD  CLOUDY    62  62 100 CALM      29.84F FOG
$$

VAZ020-022-025-037-045-250600-
WEST CENTRAL AND SOUTHWEST VIRGINIA

CITY           SKY/WX    TMP DP  RH WIND       PRES   REMARKS
STAUNTON*      DRIZZLE   51  50  98 N6        29.92F
WAYNESBORO*    CLOUDY    50  50  99 N5        29.90F
HOT SPRINGS VA HVY RAIN  38  38 100 E13       29.88F VSB<1/4
LYNCHBURG      LGT RAIN  53  51  93 N15G23    29.84F
DANVILLE       CLOUDY    58  58 100 NE3       29.79F
SOUTH BOSTON*  CLOUDY    59  58  96 W6        29.80F
MARTINSVILLE   CLOUDY    54  53  95 N6        29.83F
ROANOKE        LGT RAIN  54  52  93 N7        29.86F
BLACKSBURG     HVY RAIN  52  52  99 CALM      29.88S
DUBLIN*        RAIN      53  53  98 CALM      29.86S
MARION*        CLOUDY    53  53  99 CALM      29.87F FOG
HILLSVILLE*    CLOUDY    51  50  96 NE6       29.82F
RICHLANDS*     DRZL/FOG  52  30  43 CALM      29.86S VSB 1/2
WISE*          FOG       52  52 100 W5        29.88S VSB 3/4
ABINGDON*      RAIN      55  55 100 NW3       29.85S
$$

MDZ021>025-VAZ099-100-250600-
SOUTHERN MARYLAND AND THE DELMARVA PENINSULA

CITY           SKY/WX    TMP DP  RH WIND       PRES   REMARKS
PATUXENT RIVER CLOUDY    59  56  89 SE10      29.90F FOG
BAY BRIDGE APT LGT RAIN  55  55 100 E10       29.92F FOG
LEONARDTOWN    CLOUDY    55  55 100 E6        29.92F
DOVER          NOT AVBL
GEORGETOWN     LGT RAIN  56  55  97 SE10      29.96F
EASTON         CLOUDY    57  55  93 SE10G20   29.96F FOG
CAMBRIDGE        N/A     57  57 100 SE12      29.91F FOG
SALISBURY      CLOUDY    58  57  97 SE9       29.94F
TANGIER        CLOUDY    57  57 100 E13       29.89F
OCEAN CITY     CLOUDY    53  53 100 E16G22    29.95F FOG
WALLOPS ISLAND CLOUDY    58  57  97 E12       29.92F
ACCOMACK*      CLOUDY    57  56  97 SE9       29.89F FOG
$$

NCZ012>017-030>032-250600-
NORTH CENTRAL AND EASTERN NORTH CAROLINA

CITY           SKY/WX    TMP DP  RH WIND       PRES   REMARKS
ROANOKE RAPIDS CLOUDY    63  63 100 CALM      29.81F
RALEIGH        MOCLDY    63  62  97 SE3       29.79F
ELIZABETH CITY FAIR      62  61  96 SE9       29.84F
AHOSKIE*       CLOUDY    63  63 100 SE5       29.82F
EDENTON*       NOT AVBL
CURRITUCK*     NOT AVBL
KILL DEVIL HLS CLOUDY    59  59  99 MISG      29.84S FOG
MANTEO         CLOUDY    61  60  97 SE6       29.84F
CAPE HATTERAS  MOCLDY    69  68  96 S14       29.83F
TARBORO*       NOT AVBL
GOLDSBORO      NOT AVBL
WASHINGTON     MOCLDY    64  63  96 CALM      29.81S
GREENVILLE     FAIR      64  64 100 S8        29.83S
NEW BERN       FAIR      62  61  96 S5        29.83S
WILMINGTON     MOCLDY    64  60  87 S12       29.81F
$$

VAZ048-250600-
ELSEWHERE

CITY           SKY/WX    TMP DP  RH WIND       PRES   REMARKS
HARRISBURG PA  LGT RAIN  52  50  93 NE7       29.99F FOG
BALTIMORE      RAIN      54  54 100 NE10      29.93F FOG
ANNAPOLIS      LGT RAIN  57  57 100 E8        29.92F FOG
ANDREWS AFB    LGT RAIN  54  54 100 NE7       29.90F FOG
PHILADELPHIA   CLOUDY    53  52  96 E13       30.04F
HENDERSON NC   CLOUDY    60  58  95 SE6       29.80F
GREENSBORO     CLOUDY    58  58 100 N5        29.77S
ROCKY MOUNT    MOCLDY    63  62  97 SE5       29.79F
$$

VAZ100-250600-
MARINE

STATION/POSITION TIME  TEMP    WIND        PRES    WAVE   SWELL
                       AIR SEA DIR/SP/G            HT/PER HT/PER
                 (UTC) (F)     (DEG/KT/KT) (MB)    (FT/S) (FT/S)
BRANDYWINE LGT   0442   54     120/ 26/ 30 1015.3F
CAPE MAY NJ      0448   53 51  100/ 16/ 19 1015.0F
LEWES DE         0442   53 51  120/ 15/ 21 1014.7F
15NM E FENWICK I 0450   49 47   90/ 16/ 17 1015.1F   7/ 9   5/ 9
OCEAN-CITY-INLET 0442   53 52  130/ 13/ 19 1015.0F
WACHAPREAGUE VA  0442   54 56  100/  7/ 11 1012.7F
THOMAS POINT MD  0500   55 53  130/  9/ 10 1014.0F
GOOSES REEF MD   0500   56     140/ 10/ 12 1013.5
COVE POINT MD    0442   56     180/ 13/ 15 1013.5F
SOLOMONS ISLAND  0442   56 53  130/ 13/ 16 1012.3
BISHOPS HEAD MD  0442   58 56  130/ 16/ 19 1012.9F
PINEY POINT MD   0442          140/ 11/ 12   N/A
POTOMAC MD       0500   55 53  140/  6/ 10 1013.5    2/ 3
CAMBRIDGE MD     0442   57 56              1014.0F
LEWISETTA VA     0442   59 56  160/  9/ 11 1012.3F
RAPPAHANNOCK LGT 0442          100/ 14/ 18 1012.4F
YORK RVR RNG VA  0442   56     130/  9/ 11 1012.0F
YORKTOWN VA      0442   57 56  100/  8/ 11 1011.1F
DOMINION TERM VA 0442   60     120/  9/ 10 1011.3F
KIPTOPEKE VA     0442      55  110/ 10/ 15   N/A
CAPE HENRY VA    0442   54     110/  6/  8   N/A
WILLOUBY STN VA  0442   61     140/ 10/ 11 1011.1F
S CRANEY ISL VA  0442   61     150/ 10/ 14 1010.7F
CAPE HENRY BUOY  0500      51                N/A     7/ 9   3/11
64NM E OF VA BCH 0450   60 49   90/ 14/ 17 1011.0F  13/11  11/11
DUCK PIER NC     0442   56 50  140/ 13/ 14 1010.0F
44100 DUCK FRF   0445      53                N/A    12/10   5/11
44056 DUCK FRF   0500      51                N/A     9/11   3/11
OREGON INLET NC  0442   57 54   80/  4/  5 1010.2F
HATTERAS NC      0442   68 62  160/  8/ 14 1009.9F
DIAMOND SHLS NC  0500   73 70  180/ 17/ 21 1009.8
CAPE LOOKOUT NC  0500          230/  7/ 10 1010.1F
$$




USA.gov is the U.S. government's official web portal to all federal, state and local government web resources and services.